Hourly Data Report for October 08, 2020

OTTAWA INTL A
ONTARIO
Current Station Operator: NAVCAN

45°19'00.000" N
75°40'00.000" W
114.90 m
6106001
71628
YOW

Download Data

Hourly Data (October 2020)
Hourly Data Report for October 8, 2020
TIME Temp Definition
°C
Dew Point Definition
°C
Rel Hum Definition
%
Wind Dir Definition
10's deg

Wind Spd Definition
km/h
Visibility Definition
km
Stn Press Definition
kPa
Hmdx Definition


Wind Chill Definition


Weather Definition


00:00 7.3 1.7 67 31 27 24.1 99.57     LegendNANA
01:00 6.3 1.2 70 30 34 24.1 99.63     Mostly Cloudy
02:00 5.7 1.4 74 31 25 24.1 99.68     LegendNANA
03:00 5.3 1.2 75 30 22 24.1 99.73     LegendNANA
04:00 4.3 0.6 77 31 17 24.1 99.80     Mainly Clear
05:00 4.3 1.0 79 31 21 24.1 99.89     LegendNANA
06:00 4.6 1.5 80 32 23 24.1 99.95     LegendNANA
07:00 4.9 0.7 74 30 30 24.1 100.03     Mostly Cloudy
08:00 5.6 0.9 72 32 21 24.1 100.11     LegendNANA
09:00 5.9 -0.8 62 31 29 24.1 100.18     LegendNANA
10:00 6.6 -0.1 63 31 26 24.1 100.23     Mostly Cloudy
11:00 6.9 -1.0 57 30 30 24.1 100.29     LegendNANA
12:00 7.5 -1.6 52 28 27 24.1 100.32     LegendNANA
13:00 8.1 -1.2 52 32 27 24.1 100.30     Mostly Cloudy
14:00 9.3 -0.8 49 27 26 24.1 100.30     LegendNANA
15:00 9.2 -0.3 51 29 25 24.1 100.31     LegendNANA
16:00 9.1 -0.4 51 31 22 24.1 100.32     Mainly Clear
17:00 7.6 -0.7 55 31 19 24.1 100.39     LegendNANA
18:00 6.6 -1.2 57 35 13 24.1 100.46     LegendNANA
19:00 4.7 -1.9 62 1 7 24.1 100.51     Clear
20:00 4.2 -1.8 65 5 6 24.1 100.52     LegendNANA
21:00 3.9 -1.7 67 27 3 24.1 100.56     LegendNANA
22:00 3.4 -0.2 77 19 4 24.1 100.58     Mostly Cloudy
23:00 2.1 -0.9 80 19 9 24.1 100.60     LegendNANA

Notes on Data Quality.

Legend

  • E = Estimated
  • M = Missing
  • NA = Not Available*
  • [empty] = Indicates an unobserved value
Date modified: